Theta_e
298 298 299 299 299 298 298 297 298 298 297 296 296 295 295 294 294 294 294 293 294 293 293 292 292 291 290 289 289 290 290 289 289 290 291 290 289 288 287 286 285 285 284 284 283 283 282 282 283 284 285 285 284 284 283 284 283 283 283 283 283 283 283 282 283 283 282 282 283
297 298 299 300 300 299 297 297 297 297 296 295 295 295 294 294 295 294 293 293 293 293 292 290 289 289 288 288 289 289 289 288 288 288 289 289 287 286 285 285 284 283 283 283 282 282 282 282 282 283 284 284 284 283 283 283 282 282 282 282 283 283 283 283 283 283 282 282 282
297 297 297 297 298 297 297 296 296 295 294 293 293 293 294 294 294 294 293 293 291 291 290 289 288 287 286 286 287 287 288 288 287 287 287 287 285 284 283 283 282 282 283 282 281 281 282 281 282 284 285 284 283 283 283 282 282 282 282 281 282 283 283 284 283 283 283 283 282
296 296 296 296 296 296 297 297 296 294 293 293 292 292 292 294 294 294 292 290 289 289 289 288 287 286 286 286 286 285 286 288 286 286 286 285 284 283 282 281 281 281 281 281 281 281 281 280 282 283 284 283 282 282 282 283 282 282 282 282 282 283 283 284 283 283 283 283 282
295 296 296 297 296 296 296 296 295 294 293 292 292 292 292 292 292 291 290 290 289 289 288 287 286 286 286 286 285 284 284 286 288 286 285 284 283 282 281 280 281 281 280 280 280 280 280 280 281 282 282 282 282 282 282 281 281 281 282 283 283 283 283 283 283 283 283 283 283
295 295 296 296 295 295 295 295 294 293 293 292 292 292 291 291 291 290 290 291 289 287 287 287 287 287 286 284 284 284 284 284 286 285 283 283 282 281 280 280 280 280 280 280 279 279 279 279 281 282 282 282 281 281 281 280 280 281 281 282 283 283 282 282 283 283 282 282 281
295 295 295 295 294 294 294 293 293 293 292 292 291 291 291 290 290 290 289 289 287 286 287 289 288 287 286 284 284 284 283 284 283 283 282 282 281 281 281 280 280 280 280 280 280 279 279 279 281 282 283 284 284 282 281 280 280 280 281 282 283 283 282 281 281 282 281 280 280
294 294 294 294 294 294 294 293 293 293 292 293 293 291 290 289 289 288 288 287 287 287 287 289 287 286 285 284 284 284 283 283 283 282 282 282 281 281 281 280 280 280 280 280 280 280 279 280 281 282 282 283 284 283 282 280 280 280 280 281 282 282 281 281 281 280 281 280 279
293 293 293 293 293 293 294 293 293 293 293 293 292 291 290 289 288 288 287 287 287 287 287 287 286 285 284 284 284 284 283 283 283 282 281 281 281 281 280 280 280 280 280 279 280 280 280 280 281 282 282 283 284 283 282 280 280 279 280 281 281 281 281 281 280 280 280 280 280
293 292 292 292 292 293 293 292 292 293 293 293 291 290 290 291 289 288 288 288 287 287 286 286 285 284 284 284 284 284 283 283 283 282 281 281 281 281 281 281 281 281 280 280 280 280 280 280 281 281 282 282 282 281 281 280 280 280 280 282 282 281 281 281 280 280 280 281 280
293 292 292 293 292 292 292 291 292 292 293 292 291 289 289 291 289 288 288 287 286 286 285 285 284 284 284 284 284 283 283 283 282 282 281 281 282 281 281 281 281 281 281 281 281 280 280 281 281 281 281 281 281 281 280 280 280 280 280 281 281 281 280 280 280 280 280 280 280
293 292 292 292 291 291 291 292 292 292 292 291 290 289 288 289 288 287 287 286 285 285 285 284 284 285 285 284 284 283 283 282 281 281 281 281 281 281 281 281 281 281 281 280 280 281 281 281 281 281 280 280 281 281 281 280 280 280 280 280 280 280 280 280 280 280 280 280 280
292 291 290 290 289 290 290 292 292 292 291 291 289 288 288 287 287 286 286 285 286 285 284 283 284 284 284 284 283 283 282 281 281 281 281 281 281 280 280 280 280 280 280 280 280 281 281 281 280 280 280 280 281 281 281 280 280 280 280 280 279 279 279 279 279 279 279 279 279
291 290 290 289 289 290 291 292 292 291 290 289 289 288 287 286 286 286 286 286 286 285 284 283 283 284 284 284 283 282 282 281 281 281 281 281 280 280 280 281 280 280 280 280 280 280 280 281 280 280 280 280 281 281 280 280 280 280 280 279 279 279 279 279 279 279 278 278 279
290 290 290 289 289 290 291 291 292 291 290 289 287 287 286 286 286 287 287 286 285 285 284 283 284 284 283 282 282 282 281 281 281 280 280 281 280 280 280 280 280 280 280 280 280 280 280 280 280 280 280 280 280 280 280 279 279 279 279 279 279 279 279 279 279 279 279 279 279
290 290 289 289 290 291 291 292 292 291 290 288 287 286 286 286 286 286 286 285 285 284 283 283 283 282 282 282 281 281 281 281 280 280 280 280 280 280 280 280 280 280 280 280 280 280 279 280 280 280 280 280 280 279 279 279 279 279 279 279 279 279 279 279 279 279 279 279 279
290 290 289 290 290 291 291 292 292 291 289 287 285 285 286 286 286 286 287 286 285 284 283 282 282 282 281 282 281 281 280 280 280 280 280 280 280 280 279 280 280 280 279 279 279 279 279 279 279 279 279 279 279 279 279 279 279 279 279 279 279 279 279 280 280 280 279 279 279
290 290 290 290 290 291 291 291 291 289 288 286 285 285 285 286 286 286 286 286 284 283 283 282 281 281 281 281 281 281 281 280 280 280 280 280 280 279 279 279 280 279 279 279 279 279 279 279 278 278 278 278 279 279 279 279 279 279 279 279 279 279 279 280 280 279 279 279 280
291 290 290 290 290 291 291 291 289 288 286 285 285 284 284 285 285 285 285 284 284 283 283 281 280 280 280 280 280 281 282 280 280 280 280 279 279 279 279 279 279 278 278 278 278 278 279 279 278 278 278 278 279 279 279 279 279 279 279 279 279 279 279 279 279 279 279 279 280
291 291 291 291 290 290 290 290 289 287 285 284 284 284 284 283 284 284 284 283 283 283 282 281 281 280 280 280 279 280 281 281 280 279 279 278 278 278 278 278 278 278 277 278 278 278 278 278 278 278 278 279 279 279 279 279 279 279 279 280 280 280 279 280 279 280 280 280 280
292 292 291 291 290 290 289 288 288 286 284 283 284 284 283 283 283 283 283 283 282 281 281 281 281 280 280 279 279 279 279 280 279 279 278 278 278 278 278 278 278 277 277 278 278 278 278 278 278 278 279 279 279 279 279 279 279 279 279 280 280 280 280 280 280 280 280 280 280
292 291 290 289 289 289 288 287 286 285 284 283 283 283 282 282 282 282 282 282 281 281 280 280 280 280 280 279 279 279 279 280 279 278 278 278 278 279 279 278 278 278 277 278 278 278 278 278 278 278 279 279 279 279 279 280 280 280 280 280 280 280 280 280 280 280 280 280 280
291 290 289 288 287 288 288 286 285 285 284 283 283 282 282 282 281 281 281 280 281 281 280 280 279 279 279 279 279 279 278 279 278 278 278 278 278 278 278 278 278 278 278 278 278 278 278 278 278 278 278 279 279 279 279 280 280 280 280 280 280 280 280 280 280 280 280 280 280
289 288 288 287 286 286 286 285 285 284 284 283 282 282 282 281 280 280 280 280 280 280 280 279 279 279 278 278 278 279 279 278 278 278 278 277 278 278 278 277 277 278 278 279 279 280 280 280 280 280 280 280 280 280 280 280 280 280 280 280 280 280 280 280 280 280 281 281 281
288 287 287 287 286 285 285 285 285 285 284 283 282 281 281 281 280 280 279 279 280 279 279 279 279 278 278 278 278 278 278 278 279 279 278 278 277 277 277 277 278 278 279 281 284 286 287 287 285 284 283 282 282 282 281 281 281 280 280 281 281 281 281 281 281 281 281 282 282
287 286 286 286 285 285 285 285 285 284 283 282 281 281 281 280 280 280 279 279 279 279 279 279 278 279 279 278 278 278 278 278 278 279 279 279 278 277 277 278 278 279 280 283 286 288 289 290 290 288 286 284 283 283 283 282 282 281 281 281 281 281 281 281 281 281 282 282 283
286 286 286 286 285 285 285 285 284 283 282 281 281 281 281 280 280 280 279 280 279 278 278 278 278 280 281 278 278 278 278 278 278 278 278 278 278 278 278 278 278 279 281 284 287 288 289 290 290 290 289 286 284 283 283 283 282 281 281 281 281 281 281 281 281 282 283 283 283
286 286 285 285 285 285 285 284 283 283 282 282 281 281 280 280 279 280 280 279 279 278 278 278 278 280 280 279 278 278 278 278 278 278 278 278 278 278 278 278 278 279 282 286 288 289 289 290 290 290 290 288 286 284 283 282 282 282 282 281 281 281 281 281 282 282 283 283 283
286 286 285 284 285 284 284 283 283 283 282 281 281 280 280 280 280 280 279 279 279 278 278 278 279 279 278 278 278 278 278 278 277 277 277 277 277 277 277 277 277 280 283 287 288 289 289 290 290 290 290 290 287 285 283 282 282 282 282 282 282 282 282 282 283 283 284 283 283
286 285 285 285 284 284 283 283 283 283 282 281 280 280 280 280 279 279 279 279 279 278 278 278 278 278 278 278 278 278 278 277 277 277 277 277 276 276 277 278 278 280 283 287 288 289 289 289 289 290 290 290 288 286 284 282 282 282 282 282 283 283 283 283 283 284 284 283 283
285 285 285 285 284 284 283 283 282 282 281 281 280 280 280 280 280 279 279 279 279 280 280 279 278 278 277 277 277 277 277 277 277 277 277 276 277 278 278 277 277 279 283 287 288 288 289 289 289 289 289 290 288 286 283 282 282 282 282 283 283 283 283 283 283 283 283 283 283
285 284 284 284 284 283 282 281 281 281 280 280 280 280 280 280 279 279 279 279 279 280 279 278 277 277 277 277 277 277 277 277 277 277 276 276 276 276 277 277 276 279 282 286 287 288 288 288 289 289 289 289 288 286 283 283 283 283 283 283 283 283 283 283 283 283 283 283 283
284 284 284 284 283 282 281 280 280 280 280 280 280 280 280 279 279 279 278 279 279 278 278 277 277 277 277 277 277 277 277 277 277 278 278 278 277 276 276 277 277 279 283 286 287 287 288 288 288 288 288 289 287 285 283 283 283 283 283 283 283 283 283 283 283 283 283 283 283
284 284 283 283 282 281 280 279 279 280 280 280 280 280 279 279 279 278 278 279 278 277 277 277 277 277 277 277 277 277 278 279 278 277 277 277 276 276 276 276 277 280 284 286 287 287 287 288 288 288 288 288 286 284 283 282 283 283 283 282 283 283 283 283 283 282 282 282 282
283 283 283 282 281 280 280 279 279 279 279 280 279 279 278 278 278 278 278 279 279 277 276 275 276 276 276 276 276 277 277 278 277 277 276 275 275 275 276 276 276 280 284 286 286 287 287 287 287 287 287 287 285 283 282 282 282 282 282 282 282 282 282 282 283 283 283 282 282
283 283 283 281 281 280 279 279 279 279 279 279 279 278 278 278 277 277 278 280 279 277 275 275 275 275 275 275 275 277 278 277 277 276 275 275 275 275 275 275 276 279 283 285 285 286 286 286 287 287 287 286 284 283 283 283 282 282 282 282 282 282 282 282 283 283 283 283 282
283 283 282 281 280 280 279 279 279 279 279 279 279 278 277 277 277 276 277 279 277 276 275 275 275 275 275 275 276 277 277 276 276 275 275 276 276 275 275 275 275 278 281 284 285 285 285 286 286 286 286 284 283 283 283 282 282 282 282 282 282 282 282 282 283 283 283 283 283
282 282 282 281 280 280 279 279 279 279 279 279 278 277 277 276 276 275 276 279 276 275 275 275 275 275 275 275 276 276 276 275 275 275 275 275 275 275 275 275 275 277 279 283 284 285 285 286 286 286 286 283 282 282 282 282 282 282 282 282 282 282 282 283 283 283 283 283 284
281 282 282 281 280 279 279 279 279 279 279 278 277 277 276 275 275 275 276 278 275 274 275 275 275 275 275 276 276 275 275 274 275 275 276 275 275 276 277 276 276 277 279 282 284 284 285 285 286 286 286 284 282 282 282 282 282 282 282 282 282 283 283 283 283 283 283 283 285
281 281 281 281 280 279 279 278 278 278 278 277 277 276 275 275 275 276 276 275 274 274 274 275 275 276 276 278 276 275 274 273 273 274 275 276 276 278 280 278 277 277 279 282 283 284 284 285 285 286 286 284 283 282 282 282 282 282 282 282 282 283 283 283 283 283 283 283 285
279 280 280 280 280 279 279 278 278 277 277 277 276 275 275 276 275 274 274 273 273 274 275 275 276 276 276 277 276 275 274 273 273 274 275 276 276 278 279 278 276 276 277 279 281 283 284 284 285 286 286 284 283 283 283 283 282 282 282 282 282 282 283 283 283 283 283 283 284
Wind_Speed
10 10 9 8 8 7 7 7 7 7 6 6 6 6 6 6 6 6 6 6 6 6 6 6 6 6 6 7 8 9 9 8 8 8 9 9 8 8 7 7 6 5 5 5 4 4 4 4 4 3 3 3 3 3 3 3 3 3 3 4 4 4 4 5 6 6 6 6 5
11 11 10 9 9 7 6 6 6 6 6 6 6 6 6 6 6 6 6 6 6 6 5 5 5 6 6 8 8 9 9 9 9 9 9 8 8 7 7 6 6 6 6 5 5 5 4 5 4 4 3 3 3 3 3 2 3 3 3 4 4 4 4 5 6 6 6 6 5
11 10 10 9 8 7 7 6 7 7 7 6 5 5 6 6 6 6 6 6 6 5 5 4 5 6 7 8 8 8 8 9 9 9 8 8 7 7 6 6 6 6 6 5 5 5 5 5 4 4 3 3 3 3 3 3 3 3 4 5 4 3 4 5 5 5 5 5 5
10 10 9 9 10 10 10 8 8 7 7 6 5 5 5 6 6 6 5 5 5 5 5 5 5 6 7 8 8 8 8 9 9 9 8 8 7 7 7 6 6 6 6 5 5 5 5 5 4 3 3 3 3 4 4 3 3 3 3 4 3 3 4 4 4 4 4 4 5
10 10 10 11 12 12 11 9 8 7 6 5 5 5 5 5 5 5 5 4 5 5 5 6 6 6 7 8 9 9 9 9 9 9 8 8 8 7 6 6 7 6 6 6 6 5 5 4 3 3 3 3 3 3 3 3 3 3 3 3 3 4 4 4 4 4 4 4 4
9 10 10 10 11 10 9 7 8 7 6 5 6 6 6 5 5 5 6 6 6 6 6 7 7 6 7 7 8 9 8 8 8 8 8 8 7 7 6 6 6 6 5 5 5 5 5 4 3 3 3 3 3 3 3 3 3 3 4 4 4 4 4 4 4 4 4 5 5
9 10 10 10 10 9 8 7 7 6 6 6 7 8 8 7 7 7 8 7 6 6 6 7 7 7 8 8 8 8 8 8 8 8 8 8 7 7 6 6 5 5 5 5 5 4 4 4 3 3 3 3 3 4 4 3 3 4 4 5 5 4 4 4 4 4 4 6 6
8 9 9 9 9 9 9 8 7 7 7 7 8 10 10 9 9 9 8 6 6 6 6 7 8 9 9 9 9 9 9 9 8 8 8 7 7 6 6 5 5 5 5 5 5 4 4 3 3 3 3 3 4 4 4 4 4 4 5 6 5 5 4 4 4 4 5 7 7
6 7 8 8 8 9 9 9 8 8 8 9 9 10 10 9 9 9 8 6 7 7 7 7 8 10 10 11 10 10 9 9 9 8 7 7 7 6 5 5 5 5 4 4 4 4 4 3 3 3 4 4 4 4 4 4 4 5 6 6 6 5 5 5 5 5 6 7 8
7 7 7 7 8 8 8 8 9 9 10 10 10 9 9 10 10 9 8 7 6 7 7 8 9 10 11 11 11 10 9 9 9 8 8 7 7 6 6 5 5 5 4 4 4 4 4 3 4 4 4 4 5 5 5 5 5 6 6 6 6 6 7 6 6 6 6 7 8
9 8 8 8 8 8 8 8 8 9 9 10 9 9 9 9 9 8 7 6 7 8 9 9 10 11 11 10 10 9 9 8 8 8 8 7 7 7 7 6 6 6 5 5 4 4 4 4 5 5 5 5 5 5 6 6 6 7 7 6 7 7 8 7 7 6 6 7 8
9 8 7 7 8 7 7 8 8 8 8 9 9 8 8 8 8 7 7 7 8 9 9 9 10 11 11 9 9 8 8 7 8 8 8 8 7 7 7 6 6 6 6 6 4 4 4 5 5 6 6 6 5 5 6 6 7 7 8 8 7 8 8 9 8 7 6 7 8
8 7 7 7 7 7 8 8 8 8 8 9 8 8 7 7 7 8 8 9 10 9 8 8 9 10 9 9 8 7 7 7 8 7 7 7 7 7 6 6 6 6 6 6 4 4 4 5 6 7 7 7 6 6 6 7 7 8 8 9 8 9 9 9 8 7 7 7 8
7 7 7 7 7 8 8 8 8 7 8 8 8 7 7 6 7 8 9 10 10 9 8 7 7 7 8 8 8 7 7 7 7 7 7 7 7 7 6 6 6 6 6 5 5 5 5 6 7 7 8 8 8 7 7 7 7 8 8 9 9 9 9 9 8 8 7 8 9
7 8 8 7 8 8 8 8 7 7 7 8 7 7 6 6 7 8 8 9 9 8 7 7 7 6 6 7 7 8 8 7 7 7 7 7 6 6 7 6 6 6 6 5 5 5 6 7 7 7 7 8 8 8 7 7 7 8 8 9 9 10 10 9 9 8 8 9 9
8 8 8 7 8 8 8 8 7 7 7 7 7 6 6 6 7 7 8 9 8 7 7 8 7 6 5 6 6 7 7 7 7 7 7 7 7 7 7 7 7 7 6 6 6 6 6 7 7 7 7 8 8 8 8 7 8 8 9 9 9 10 10 10 9 9 9 9 10
8 8 8 8 9 9 9 9 7 7 7 7 7 7 7 7 7 7 8 9 8 7 7 8 7 6 5 5 5 6 6 6 6 7 7 7 7 7 7 7 7 7 7 6 6 6 6 6 6 6 7 7 8 8 8 8 8 8 9 9 9 9 10 10 10 9 10 10 11
9 9 8 9 10 10 10 9 8 7 7 7 8 7 7 7 7 8 8 8 8 8 9 8 7 6 6 6 5 5 6 6 6 7 7 7 7 7 7 7 7 7 6 6 6 7 7 7 6 6 6 7 7 7 8 8 8 8 9 9 9 9 10 10 10 9 10 10 12
9 9 9 10 10 10 10 9 9 8 7 7 7 7 8 8 8 8 8 7 8 9 10 9 7 6 6 6 5 5 6 6 7 7 7 7 6 6 6 7 6 6 6 6 6 7 7 6 6 6 6 6 7 7 7 8 8 8 9 9 9 10 10 10 10 10 10 11 12
10 10 10 10 10 10 9 9 9 8 7 6 7 8 9 9 9 9 9 9 9 9 9 9 8 7 6 6 6 6 6 5 6 6 6 6 5 6 6 6 6 5 5 5 6 6 6 6 6 6 6 7 7 8 8 8 8 9 9 9 9 10 10 10 10 10 10 11 12
11 10 10 9 9 9 9 8 8 7 7 7 8 9 9 9 9 10 10 9 9 8 9 9 9 9 8 7 7 6 6 5 5 5 5 5 6 6 6 6 5 5 5 5 6 6 6 6 6 6 6 7 8 8 8 8 9 9 10 9 9 10 10 10 10 10 11 11 11
10 9 8 8 8 8 8 7 7 7 7 7 8 9 9 9 9 9 9 8 8 8 8 8 9 9 9 8 8 7 5 4 4 4 4 4 5 5 5 4 4 5 5 6 6 6 6 6 6 6 6 7 8 9 9 9 10 10 10 10 10 10 10 10 10 10 10 11 11
7 6 6 7 7 8 8 7 7 7 8 8 8 8 9 9 8 8 7 7 7 7 6 6 7 8 8 8 8 7 5 4 3 3 3 4 4 4 4 3 4 5 6 6 5 5 5 5 6 6 7 7 8 9 9 10 10 10 10 10 10 10 10 9 9 9 10 10 10
6 5 5 5 6 7 7 7 7 8 8 9 9 9 9 9 8 7 7 7 7 7 7 5 5 6 6 6 6 6 6 5 4 4 4 4 4 4 4 3 4 5 5 5 5 6 6 6 6 6 7 7 8 8 9 9 9 9 9 9 9 9 9 9 9 9 9 10 10
6 6 5 6 6 7 7 8 9 9 9 9 8 8 8 8 8 7 7 7 7 7 7 6 5 5 5 5 5 5 5 5 5 5 5 5 4 4 4 4 4 4 5 5 9 11 12 11 9 7 7 7 7 7 7 8 8 8 8 8 8 9 9 9 9 9 10 10 10
6 6 7 7 7 8 8 9 9 9 8 7 7 7 7 7 7 7 7 7 7 7 6 6 5 5 5 4 4 4 4 4 5 5 5 5 5 5 4 4 4 4 5 7 11 14 15 16 15 13 10 7 7 7 7 7 7 7 8 8 8 8 9 9 10 10 10 10 11
7 7 8 8 8 9 9 9 8 8 8 8 8 8 8 7 7 7 8 7 6 6 5 5 5 6 6 4 4 4 4 4 4 5 5 5 5 5 5 5 4 4 5 9 12 15 16 17 18 17 14 9 7 7 7 7 7 7 7 7 7 8 8 10 10 11 12 11 12
8 8 8 8 8 9 9 8 8 9 9 9 9 8 8 8 8 8 8 7 6 5 5 4 4 4 4 4 4 4 4 4 4 4 4 5 5 5 6 5 5 5 7 11 14 15 16 17 18 18 17 14 9 7 6 7 7 7 6 7 7 8 9 9 10 11 12 12 12
8 8 8 8 9 9 8 8 9 9 9 9 8 8 8 8 8 8 8 7 7 6 5 4 4 3 3 4 4 4 4 4 4 4 3 4 4 5 6 5 5 7 9 13 15 16 17 17 18 18 18 17 11 7 6 6 6 6 6 6 7 8 9 9 10 11 12 13 13
8 8 8 9 9 9 9 9 9 9 8 8 8 8 8 8 8 8 8 8 7 6 5 4 4 4 4 4 4 4 4 3 3 3 3 4 5 5 6 6 6 7 9 13 15 16 17 17 18 18 19 19 14 10 6 5 5 6 6 7 8 9 10 11 12 12 12 12 13
8 8 8 9 9 9 9 8 8 8 8 7 8 8 9 9 9 8 8 8 7 5 4 4 4 4 4 4 3 3 3 3 3 3 3 4 5 6 6 6 6 7 9 13 15 16 17 17 18 18 18 19 15 10 7 6 6 6 7 7 9 10 10 11 11 12 12 13 13
8 8 8 9 9 8 8 7 7 7 8 8 8 9 9 9 8 7 6 6 5 5 4 4 4 4 4 3 3 3 3 3 3 3 4 5 5 5 6 6 6 7 9 12 14 16 17 17 18 18 18 19 15 11 8 7 7 8 8 9 10 11 11 10 10 11 13 13 13
8 8 8 9 8 7 7 7 7 7 8 8 9 9 9 8 6 5 5 5 5 5 5 5 5 5 5 4 4 3 3 4 4 4 4 5 5 5 5 6 5 7 9 13 15 16 17 17 18 18 19 19 15 11 8 8 7 8 8 9 10 10 11 11 11 12 12 13 13
8 8 8 8 7 7 6 6 7 7 8 8 8 9 8 7 6 5 5 4 4 4 4 4 5 5 4 4 4 3 4 4 4 4 4 4 4 4 5 5 4 6 10 13 15 16 17 17 18 18 19 18 13 9 7 8 8 8 9 9 10 10 11 11 12 12 12 13 12
8 8 8 7 7 7 7 7 7 7 8 8 9 8 8 7 7 6 5 5 4 3 3 3 3 3 2 2 3 3 3 4 4 3 3 3 3 3 5 5 5 7 11 14 15 16 17 18 18 18 18 16 11 8 7 8 9 9 10 11 11 11 11 11 12 12 12 13 13
8 8 8 7 7 7 7 8 8 8 9 9 9 8 7 6 6 5 5 5 4 3 3 2 2 2 2 2 2 3 3 4 4 3 3 3 3 3 4 5 5 8 11 14 15 16 17 17 18 18 17 13 8 7 7 8 8 10 11 11 11 11 11 11 12 12 12 12 12
8 8 8 8 8 8 8 8 9 9 10 10 9 8 7 7 5 4 4 4 4 3 3 3 3 3 3 3 3 3 3 3 3 3 3 3 3 4 5 6 6 7 10 13 15 16 17 17 18 17 15 11 8 7 7 8 8 9 10 11 11 11 11 10 11 11 12 12 12
8 8 8 8 8 8 8 9 9 10 10 10 8 7 7 6 5 4 3 4 4 4 3 3 3 3 3 3 3 3 3 3 3 3 3 4 4 4 5 6 6 7 9 12 14 16 17 17 18 17 15 10 8 7 7 7 8 9 9 10 10 10 9 9 9 10 11 12 14
8 8 8 9 9 9 9 9 10 10 10 8 7 6 5 5 4 3 3 4 4 4 4 3 3 3 3 3 3 2 2 2 3 3 4 4 4 5 6 6 6 7 9 12 15 16 17 17 18 18 16 12 8 7 7 7 8 9 9 9 9 9 9 9 8 9 9 11 16
7 8 8 9 9 9 9 10 10 9 8 7 6 5 5 4 3 3 3 3 3 4 4 4 3 3 3 3 3 2 2 2 2 3 4 4 5 6 7 7 7 8 9 12 15 17 18 18 18 18 16 11 8 7 6 7 8 9 9 8 8 8 8 8 8 8 9 10 14
7 8 8 8 9 9 9 10 8 7 6 6 5 5 4 4 3 3 3 3 3 3 3 3 3 3 3 2 2 2 2 2 3 3 3 4 5 7 8 7 8 8 9 11 14 16 18 18 18 18 16 11 8 7 6 7 8 9 9 9 8 8 8 9 8 8 9 9 10
Wind_Direction
220 219 218 217 217 218 219 222 222 222 220 216 215 214 212 211 216 216 213 208 210 210 207 202 198 194 188 184 184 186 189 189 189 191 193 195 199 202 205 206 205 204 204 204 198 192 189 189 193 201 211 213 217 224 225 216 213 220 230 238 241 243 246 247 251 253 252 251 251
219 219 219 218 218 218 219 221 222 221 219 216 214 211 209 208 213 214 212 208 209 206 201 197 191 184 181 183 184 185 186 188 189 191 195 197 200 201 200 201 200 198 196 194 190 189 187 186 191 200 212 218 220 230 234 222 207 216 233 241 241 243 245 248 251 251 251 251 251
217 217 217 217 216 216 216 219 220 218 216 216 211 208 207 208 211 212 211 208 204 198 192 189 184 180 179 181 184 185 186 186 187 190 194 198 198 197 195 194 192 192 191 188 187 188 188 185 190 201 213 224 226 234 238 230 208 215 229 238 241 242 247 252 251 251 251 252 250
214 214 214 215 215 215 216 217 216 214 211 208 206 205 207 209 210 209 206 201 197 194 191 185 181 180 180 179 183 185 187 186 184 187 190 194 193 191 188 183 183 185 187 184 185 187 187 183 190 201 212 220 227 233 237 234 217 217 226 234 237 240 245 253 253 253 253 255 250
213 213 213 214 214 215 216 216 213 209 205 198 199 204 208 211 209 206 201 196 198 197 193 183 179 180 180 178 180 182 184 185 184 185 186 189 187 183 179 177 181 183 183 182 183 183 183 180 188 201 211 216 223 229 231 225 221 228 237 243 243 244 248 254 256 255 253 256 253
212 213 214 215 214 215 216 215 210 206 200 192 196 203 209 210 206 203 202 201 199 194 188 182 178 177 176 175 177 178 180 181 181 181 181 183 181 177 175 178 182 181 180 180 180 178 176 176 191 206 214 214 224 229 227 216 223 233 245 254 253 252 252 254 256 256 255 255 256
209 210 212 214 212 213 214 212 208 204 197 194 199 204 207 205 202 201 202 199 192 187 185 184 181 177 176 176 177 177 177 178 178 177 176 177 175 175 176 181 181 182 182 181 178 177 176 176 195 217 228 229 235 234 227 212 222 235 248 257 257 257 254 253 255 255 255 254 254
207 208 209 211 209 210 210 209 205 202 201 203 207 208 206 201 199 199 197 192 189 187 186 187 182 179 177 177 178 177 176 174 175 176 176 174 174 176 179 181 183 188 189 183 180 181 182 183 200 220 231 237 244 243 236 221 227 239 249 256 260 260 256 253 254 253 253 254 255
210 210 210 209 209 209 209 207 203 202 206 211 212 209 204 198 196 194 193 192 191 187 184 185 182 179 177 177 177 176 175 174 175 176 176 174 175 179 183 186 192 198 199 190 185 185 189 194 211 224 232 238 245 248 245 234 237 244 250 256 261 261 258 253 252 252 252 254 256
212 210 209 209 211 211 209 207 206 206 209 214 213 208 202 198 196 194 193 192 185 184 183 183 179 177 178 179 178 177 176 174 175 175 176 177 180 184 189 193 199 205 208 202 191 188 191 203 222 232 237 239 243 248 249 245 245 248 252 258 260 262 261 257 253 252 253 255 256
212 209 207 208 210 209 207 206 210 212 213 216 212 207 202 200 197 195 190 181 177 182 185 180 176 176 178 180 179 178 176 175 175 175 177 181 185 189 192 196 201 206 212 211 200 194 198 213 229 238 242 243 243 246 249 248 247 250 253 258 260 262 262 261 256 254 254 255 257
213 210 208 207 205 203 203 207 212 215 216 217 212 206 201 200 195 188 180 173 178 184 185 179 176 177 178 180 180 178 176 174 174 175 178 184 188 192 196 199 203 208 213 214 206 201 206 219 230 239 244 248 246 247 247 247 246 249 253 256 257 258 260 261 257 255 254 254 257
213 211 208 206 200 198 200 208 212 214 215 216 210 205 199 197 189 180 176 177 182 183 183 180 179 178 177 178 178 176 175 175 175 177 181 187 190 193 197 203 207 211 215 216 210 208 213 222 229 237 243 248 249 248 246 244 245 247 251 255 255 256 257 258 257 256 255 255 259
212 210 208 202 196 197 202 209 213 213 212 212 208 202 194 191 185 180 179 182 183 182 179 181 183 182 179 176 176 176 175 175 175 178 183 189 190 193 199 206 209 212 215 218 213 211 215 224 229 234 240 246 249 248 245 242 243 245 249 253 255 256 257 259 258 258 259 260 261
213 211 207 199 196 199 205 209 212 212 209 208 203 195 187 185 185 183 183 184 184 180 177 179 185 186 181 175 174 174 174 173 175 179 185 191 193 197 201 208 211 213 215 219 217 215 217 223 228 233 237 243 246 248 246 242 243 244 247 250 254 257 259 261 261 261 261 261 264
214 212 206 198 199 203 207 209 211 209 204 203 195 187 183 184 184 185 185 186 183 179 177 181 184 183 179 175 173 171 171 173 176 181 186 194 198 202 205 210 214 216 217 219 222 223 223 224 227 231 235 240 244 246 246 244 244 245 247 249 253 256 259 262 263 262 262 262 265
215 212 206 200 203 206 208 209 209 205 200 195 186 184 184 184 185 187 188 187 181 179 181 184 182 177 174 176 172 170 170 175 180 186 191 198 202 204 208 212 216 217 217 219 224 229 230 230 230 230 232 237 242 245 246 246 247 248 249 251 253 256 259 261 263 264 264 264 265
217 213 207 203 206 208 208 208 206 200 194 188 183 184 186 184 185 188 190 187 181 179 181 184 180 175 172 174 174 174 175 179 187 193 198 203 203 205 209 215 218 218 218 218 223 229 233 235 234 232 233 236 241 244 246 248 250 252 253 255 257 258 260 261 262 262 263 264 265
217 213 209 207 208 208 207 205 202 197 191 184 182 184 186 186 185 186 188 188 183 180 179 179 178 176 174 173 175 179 183 184 191 198 203 204 204 206 211 217 220 220 219 219 224 230 234 237 238 237 239 241 245 248 250 252 254 257 258 260 261 262 262 262 261 260 260 261 264
218 214 211 209 208 207 206 204 200 195 188 182 181 184 186 187 184 185 186 188 185 180 176 175 176 177 177 175 176 182 188 189 191 197 202 202 203 208 214 218 221 222 222 222 227 232 237 240 242 243 244 246 251 254 256 258 260 261 262 263 263 263 262 262 261 260 260 260 262
219 216 212 209 206 205 204 202 196 191 185 182 183 184 185 185 185 186 187 185 180 176 175 175 176 177 178 177 179 185 190 189 189 194 199 201 206 211 214 215 219 224 228 229 233 237 240 243 245 246 249 251 255 258 261 264 265 265 265 265 264 263 263 262 262 262 262 262 262
220 215 211 206 204 202 200 197 192 187 184 184 185 184 184 184 187 187 185 176 172 172 175 177 177 178 179 179 182 184 186 184 186 191 196 200 209 213 214 210 218 227 235 238 240 242 245 248 249 250 252 257 260 262 264 265 266 267 267 265 265 264 263 262 262 261 261 261 262
219 213 207 202 200 197 195 192 189 187 186 186 186 184 183 184 185 182 177 169 171 174 177 177 178 180 180 180 180 180 179 178 187 196 202 205 215 219 219 214 221 231 239 243 243 244 247 252 254 253 254 256 259 261 261 261 262 264 264 265 265 264 263 262 260 259 260 260 260
213 207 201 196 193 192 190 187 187 188 189 188 186 184 183 182 179 175 171 170 174 175 176 175 176 177 177 176 175 174 175 180 193 205 216 219 222 226 228 227 229 236 241 246 246 246 248 252 253 252 251 251 252 254 254 253 254 257 259 263 265 266 265 264 262 261 262 263 263
205 200 196 191 189 188 188 187 189 191 191 188 184 181 180 178 174 172 170 173 175 175 173 171 171 169 167 167 169 170 174 182 195 208 220 230 232 234 235 237 239 242 246 251 256 258 260 262 263 261 257 253 253 254 254 252 253 256 259 264 269 273 275 275 272 271 270 270 268
197 196 194 190 187 187 189 191 191 191 189 184 181 180 179 177 173 171 172 175 176 174 171 168 168 167 165 162 164 169 178 189 199 209 221 232 239 242 243 242 245 247 251 255 261 265 268 271 273 274 273 269 267 268 269 268 265 266 267 270 273 276 279 281 280 278 275 272 270
195 195 195 190 187 189 192 193 190 187 185 181 180 180 180 175 172 173 174 177 175 173 170 168 169 169 167 160 166 177 190 201 207 214 221 229 236 242 244 245 245 246 252 258 264 269 273 276 278 279 280 278 276 275 275 276 274 273 272 273 273 274 276 278 280 281 280 279 278
196 195 192 187 189 192 193 188 186 186 185 182 181 179 176 171 172 175 177 177 173 170 170 174 173 168 163 161 176 187 197 205 211 216 221 227 235 240 244 248 248 250 255 261 268 273 277 280 282 283 284 284 281 277 275 275 277 276 275 274 275 275 276 278 281 284 285 286 286
196 192 189 188 193 194 191 187 188 187 185 180 178 175 172 171 175 177 178 175 172 173 177 180 171 164 165 178 189 195 201 209 212 215 220 229 238 243 246 250 251 256 261 266 272 277 280 283 284 285 286 287 285 283 280 278 279 280 279 278 278 279 280 281 283 285 286 287 288
192 189 189 192 194 194 192 190 189 185 180 175 173 173 173 175 178 179 179 176 178 180 181 173 165 170 182 192 193 198 206 214 211 210 216 228 239 245 248 250 251 256 263 270 276 280 283 285 286 287 287 288 287 285 282 280 280 280 280 279 280 281 282 283 284 285 285 286 286
190 190 192 195 196 195 194 191 185 179 174 172 173 175 177 179 182 183 182 180 181 181 175 161 166 177 188 190 191 199 208 215 211 211 216 224 237 244 248 250 250 257 266 272 279 282 285 286 287 287 288 288 288 287 283 282 281 280 279 279 281 282 283 283 283 283 283 283 284
190 191 193 196 198 196 192 184 178 174 172 173 175 179 182 185 186 185 183 181 177 173 167 163 173 184 192 194 195 203 210 214 216 216 216 219 231 240 248 252 251 257 266 274 281 284 286 287 288 288 289 290 289 288 285 284 282 281 280 280 281 281 282 281 281 281 281 281 282
191 192 194 197 197 193 184 176 173 173 173 176 180 183 185 186 185 182 181 179 173 170 170 174 182 189 195 197 200 207 213 215 217 219 221 222 228 238 248 254 254 261 269 278 283 286 287 288 289 289 290 291 290 289 287 285 284 282 281 281 281 280 279 279 278 279 278 278 278
192 193 195 196 192 184 176 172 171 172 175 180 185 186 186 184 182 181 181 180 172 169 169 174 180 185 189 189 192 201 210 216 215 215 217 218 225 238 249 255 257 267 275 282 285 287 288 289 290 290 291 292 291 290 288 286 284 283 281 280 280 279 277 276 275 275 275 274 274
191 192 193 194 187 178 172 170 171 174 178 184 188 189 187 183 182 182 181 177 166 158 155 158 159 162 165 169 177 190 203 214 215 214 212 211 220 240 252 259 262 271 278 284 287 288 290 290 290 291 291 292 291 289 286 286 284 282 280 280 279 277 276 274 274 273 273 272 272
189 190 190 189 182 175 171 170 173 177 182 188 189 189 187 186 185 182 176 167 156 149 147 143 136 143 154 165 176 190 199 207 212 215 214 210 221 241 256 263 266 274 280 285 288 289 290 290 290 290 291 291 289 286 285 284 283 281 280 279 278 276 274 272 272 272 271 271 270
189 188 186 184 180 175 173 172 176 182 187 191 190 188 186 185 182 176 165 154 149 150 152 146 150 163 174 181 187 193 195 194 201 212 222 224 229 244 257 266 269 275 281 286 288 289 289 289 289 290 290 290 287 285 284 283 281 280 280 279 277 275 273 272 272 271 270 269 269
187 185 183 180 179 176 174 175 180 186 190 192 189 185 182 178 174 167 158 153 151 154 158 156 165 174 179 179 185 191 193 190 196 210 224 234 236 245 256 267 270 274 280 285 287 288 288 288 289 290 290 288 286 284 283 281 279 278 277 277 277 275 273 271 271 271 270 267 269
185 183 181 179 178 176 176 179 185 188 189 187 184 180 176 171 165 159 152 147 144 148 154 161 171 174 172 168 176 189 201 202 203 212 224 235 241 249 258 267 271 275 279 284 287 288 289 289 289 290 290 288 285 282 280 278 277 276 275 275 276 276 275 273 273 273 271 267 270
181 180 179 177 177 176 178 182 187 188 185 180 176 173 169 162 150 139 130 126 128 136 147 159 165 164 162 164 174 193 215 227 217 219 226 236 247 258 265 270 274 277 281 285 287 288 289 289 289 289 289 286 281 277 276 275 275 275 275 275 277 278 279 277 275 273 272 269 271
175 176 177 177 176 176 178 182 184 182 177 171 168 164 156 141 127 118 115 116 122 131 141 150 151 151 152 162 171 193 222 245 240 234 233 239 252 263 270 273 276 278 281 284 286 287 288 288 288 288 287 284 279 275 273 273 274 275 275 277 278 280 280 280 277 274 273 271 272